[[{"header":{"parameterUnit":"m.s-1","parameterCategory":2,"la1":30.2991,"la2":30.254,"lo1":-89.0895,"lo2":-89.0444,"dy":0.0017,"dx":0.0017,"nx":28,"ny":28,"refTime":"2025-03-18T09:00:00:Z","depth":"0","parameterNumber":2,"parameterNumberName":"U-component_of_CURRENTS"},"data":[0,0,0,0,0,0,0,0,0,0,0,0,0,0,0,0,0,0,0,0,0,0,0,0,0,0,0,0,0,0,0,0,0,0,0,0,0,0,0,0,0,0,0,0,0,0,0,0,0,0,0,0,0,0,0,0,0,0,0.4541,0.4545,0,0.4749,0.4749,0.4749,0.4769,0.4769,0.4769,0.4769,0.4657,0.4654,0.4651,0,0,0,0,0,0,0,0,0,0,0,0,0,0.4052,0.4059,0.454,0.4545,0.455,0.4749,0.4749,0.4749,0.4769,0.4769,0.4769,0.4769,0.4658,0.4654,0.465,0,0,0,0,0,0,0,0,0,0,0,0,0,0.4239,0.4062,0.4539,0.4602,0.4611,0.4748,0.4749,0.475,0.4769,0.4769,0.4769,0.4769,0.4659,0.4654,0.465,0.462,0,0,0.4636,0.4634,0,0,0,0,0,0,0,0,0.4229,0.4254,0.4588,0.4598,0.4609,0.4755,0.4537,0.4699,0.4769,0.4683,0.4769,0.4769,0.4675,0.467,0.4678,0.4614,0.461,0.4635,0.4633,0.4631,0.4629,0,0,0,0,0,0,0,0.4216,0.4245,0.4598,0.4593,0.4607,0.4584,0.4609,0.4567,0.4651,0.469,0.4699,0.4761,0.4675,0.4683,0.4675,0.4608,0.4635,0.4631,0.4629,0.4627,0.4709,0.4714,0,0,0,0,0,0,0.4247,0.4234,0.4592,0.4607,0.4443,0.4595,0.4622,0.4687,0.4659,0.4665,0.4761,0.4762,0.469,0.468,0.4671,0.4745,0.4631,0.4626,0.4624,0.4705,0.471,0.4716,0,0,0,0,0,0,0.4235,0.4276,0.4584,0.4443,0.4484,0.4607,0.4678,0.4692,0.4726,0.4721,0.4714,0.4787,0.469,0.4677,0.4676,0.4736,0.4624,0.462,0.4699,0.4706,0.4713,0.4819,0,0,0,0,0,0,0.422,0.427,0.429,0.4446,0.4494,0.4662,0.4682,0.4697,0.4776,0.4778,0.474,0.4729,0.4689,0.4684,0.4672,0.4727,0.4617,0.4692,0.4702,0.4711,0.481,0.483,0.4847,0,0,0,0,0,0.4201,0.4243,0.4289,0.4332,0.453,0.4666,0.4683,0.4753,0.4777,0.4781,0.4789,0.4732,0.4736,0.4682,0.4667,0.4723,0.4688,0.4699,0.471,0.4801,0.4826,0.4846,0,0,0,0,0,0,0.4043,0.4257,0.4309,0.4413,0.4533,0.4678,0.469,0.4769,0.4782,0.4772,0.4756,0.4745,0.4781,0.4747,0.4689,0.479,0.4718,0.4726,0.4793,0.4815,0.4833,0.4743,0.4613,0,0,0,0,0,0.4026,0.4121,0.4302,0.4391,0.443,0.4562,0.4619,0.4691,0.4759,0.4767,0.4773,0.4785,0.4815,0.4807,0.4807,0.4823,0.4744,0.4871,0.489,0.4905,0.4832,0.4835,0.4844,0.4752,0.4752,0.4752,0,0,0.4009,0.4134,0.4193,0.4365,0.4438,0.4507,0.4587,0.4687,0.4759,0.4745,0.479,0.483,0.4839,0.4885,0.49,0.4857,0.4895,0.4919,0.4931,0.4847,0.4847,0.4854,0.4861,0.476,0.4759,0.4757,0,0,0.4014,0.4102,0.4163,0.4242,0.4391,0.4474,0.4514,0.4667,0.472,0.4801,0.4842,0.4913,0.4932,0.4974,0.4992,0.5108,0.4998,0.5147,0.5143,0.5152,0.5156,0.5159,0.5066,0.5059,0.515,0.515,0.5151,0,0.3968,0.4078,0.4197,0.4251,0.4311,0.446,0.4508,0.4596,0.4748,0.4788,0.4816,0.4943,0.497,0.5045,0.5113,0.514,0.5083,0.5052,0.5166,0.5168,0.5169,0.5072,0.5063,0.5157,0.5156,0.5155,0.5155,0,0.4022,0.4075,0.4101,0.4223,0.4296,0.4362,0.4511,0.4589,0.469,0.4789,0.49,0.4977,0.5033,0.5125,0.5142,0.5211,0.5147,0.5191,0.5086,0.5182,0.5077,0.5066,0.5166,0.5164,0.5162,0.516,0,0,0.396,0.4113,0.41,0.4125,0.4275,0.4339,0.4447,0.4577,0.4632,0.4788,0.485,0.5007,0.5054,0.508,0.5163,0.5201,0.5207,0.5193,0.5191,0.5051,0.5134,0.4967,0.4937,0.5271,0.527,0.527,0.5052,0,0.3935,0.4005,0.4104,0.4142,0.4166,0.4303,0.4382,0.4521,0.464,0.4727,0.4868,0.4947,0.504,0.5084,0.5141,0.5205,0.5182,0.5253,0.5097,0.5089,0.4892,0.4922,0.4715,0.4494,0.504,0.5038,0.5037,0,0.3897,0.3956,0.399,0.4078,0.4094,0.4148,0.4259,0.4361,0.4526,0.4614,0.4725,0.4824,0.493,0.4995,0.5052,0.5091,0.5075,0.5112,0.5106,0.4878,0.4901,0.4493,0.4451,0.4406,0.5018,0.502,0.5021,0,0.3743,0.3837,0.3856,0.3888,0.4035,0.4066,0.4146,0.4307,0.4384,0.4525,0.4576,0.4708,0.4765,0.4817,0.4913,0.497,0.492,0.5013,0.4814,0.4799,0.4544,0.4507,0.4383,0.496,0.496,0.4961,0.4961,0,0.3642,0.3638,0.3776,0.3778,0.3805,0.3932,0.3976,0.4094,0.4226,0.4287,0.4477,0.4531,0.4727,0.4763,0.4826,0.4752,0.4833,0.4745,0.473,0.4579,0.455,0.4435,0.4428,0.4953,0.4954,0.4956,0.4957,0,0.3467,0.3553,0.3581,0.3702,0.3734,0.3747,0.3882,0.3923,0.4055,0.4133,0.4172,0.4372,0.4411,0.4532,0.4598,0.4599,0.4441,0.4521,0.4277,0.4237,0.4011,0.4017,0.3633,0.3537,0.4241,0.4235,0.423,0,0.3397,0.3393,0.3499,0.3525,0.3578,0.3629,0.3675,0.3824,0.3875,0.4035,0.405,0.4125,0.4166,0.4162,0.4172,0.4127,0.4156,0.3903,0.399,0.3897,0.3897,0.3835,0.3782,0.3692,0.3684,0.3677,0.3671,0,0.3282,0.3316,0.3358,0.3405,0.3441,0.3486,0.3551,0.3567,0.3726,0.3767,0.3819,0.3852,0.3837,0.3734,0.3676,0.3666,0.371,0.3751,0.3747,0.3484,0.3309,0.3245,0.3894,0.3608,0.3615,0.3619,0.3623,0.3625,0.3208,0.3208,0.3268,0.3293,0.3331,0.3336,0.3311,0.3376,0.3395,0.3412,0.3533,0.3474,0.345,0.3344,0.3295,0.3106,0.3192,0.3071,0.3084,0.303,0.2922,0.3366,0.3038,0.304,0.3043,0.3045,0.3047,0,0.3126,0.3143,0.3165,0.3184,0.3152,0.3216,0.3224,0.3163,0.3103,0.3129,0.3112,0.2997,0.2855,0.2835,0.2657,0.252,0.2472,0.2472,0.2393,0.2384,0.2844,0.2816,0.2312,0.2312,0.2312,0.2312,0.2312,0.2312,0.3099,0.3075,0.3072,0.2999,0.2997,0.2896,0.286,0.2789,0.2763,0.2603,0.249,0.2478,0.2522,0.2409,0.2233,0.2169,0.2089,0.1887,0.1994,0.2415,0.2476,0.2535,0.2512,0.1953,0.1952,0.1446,0.1442,0.1439]},{"header":{"parameterUnit":"m.s-1","parameterCategory":2,"la1":30.2991,"la2":30.254,"lo1":-89.0895,"lo2":-89.0444,"dy":0.0017,"dx":0.0017,"nx":28,"ny":28,"refTime":"2025-03-18T09:00:00:Z","depth":"0","parameterNumber":3,"parameterNumberName":"V-component_of_CURRENTS"},"data":[0,0,0,0,0,0,0,0,0,0,0,0,0,0,0,0,0,0,0,0,0,0,0,0,0,0,0,0,0,0,0,0,0,0,0,0,0,0,0,0,0,0,0,0,0,0,0,0,0,0,0,0,0,0,0,0,0,0,-0.0077,-0.0079,0,-0.0291,-0.0293,-0.0296,-0.0406,-0.0406,-0.0406,-0.0405,-0.048,-0.0482,-0.0484,0,0,0,0,0,0,0,0,0,0,0,0,0,0.0129,0.0126,-0.0076,-0.0079,-0.0082,-0.029,-0.0293,-0.0296,-0.0406,-0.0406,-0.0406,-0.0405,-0.048,-0.0482,-0.0484,0,0,0,0,0,0,0,0,0,0,0,0,0,-0.0011,0.0125,-0.0076,-0.016,-0.017,-0.029,-0.0293,-0.0297,-0.0406,-0.0406,-0.0406,-0.0405,-0.0479,-0.0482,-0.0485,-0.0504,0,0,-0.0494,-0.0495,0,0,0,0,0,0,0,0,-0.0003,-0.0019,-0.0145,-0.0155,-0.0166,-0.032,-0.0249,-0.0359,-0.0406,-0.0317,-0.0405,-0.0405,-0.0413,-0.0421,-0.0466,-0.0507,-0.0511,-0.0494,-0.0496,-0.0497,-0.0498,0,0,0,0,0,0,0,0.0007,-0.0011,-0.0163,-0.0148,-0.016,-0.0225,-0.0244,-0.0271,-0.0361,-0.0325,-0.0333,-0.0355,-0.0418,-0.0463,-0.0468,-0.0512,-0.0494,-0.0497,-0.0499,-0.05,-0.0629,-0.063,0,0,0,0,0,0,0.0041,-0.0001,-0.0156,-0.0169,-0.0081,-0.0228,-0.0249,-0.0272,-0.0364,-0.0379,-0.0355,-0.0359,-0.0458,-0.0464,-0.047,-0.051,-0.0497,-0.05,-0.0502,-0.0627,-0.0629,-0.0631,0,0,0,0,0,0,0.0046,0.0029,-0.0147,-0.0089,-0.0116,-0.023,-0.0256,-0.0276,-0.0328,-0.0388,-0.04,-0.0386,-0.0458,-0.0466,-0.0523,-0.0513,-0.0501,-0.0504,-0.0625,-0.0628,-0.063,-0.0581,0,0,0,0,0,0,0.0053,0.0033,0.003,-0.0086,-0.0118,-0.0193,-0.0256,-0.028,-0.034,-0.0348,-0.0418,-0.0426,-0.0458,-0.0519,-0.0526,-0.0517,-0.0507,-0.0623,-0.0626,-0.0629,-0.0581,-0.0582,-0.0582,0,0,0,0,0,0.0061,0.0062,0.0032,0.0013,-0.0117,-0.0192,-0.0213,-0.0297,-0.0341,-0.0348,-0.0429,-0.0424,-0.0542,-0.0523,-0.0531,-0.0522,-0.0622,-0.0625,-0.0629,-0.058,-0.0581,-0.0582,0,0,0,0,0,0,0.0138,0.0047,0.0012,-0.0018,-0.0087,-0.0209,-0.0223,-0.0296,-0.0372,-0.0371,-0.0449,-0.0462,-0.0512,-0.0533,-0.0509,-0.0574,-0.0579,-0.0584,-0.0539,-0.054,-0.0541,-0.0448,-0.0509,0,0,0,0,0,0.0159,0.0138,0.0042,0.0016,-0.0003,-0.0116,-0.0159,-0.0212,-0.0297,-0.0333,-0.0403,-0.0469,-0.0535,-0.0549,-0.0603,-0.0628,-0.0592,-0.0631,-0.0631,-0.0631,-0.0566,-0.0553,-0.0544,-0.0643,-0.0643,-0.0642,0,0,0.0175,0.0126,0.0109,0.0032,-0.0024,-0.0042,-0.0141,-0.0184,-0.021,-0.0322,-0.0379,-0.0475,-0.055,-0.0598,-0.0617,-0.0606,-0.0588,-0.0636,-0.0635,-0.0568,-0.0555,-0.0544,-0.0535,-0.0645,-0.0645,-0.0644,0,0,0.021,0.0169,0.0171,0.0138,0.0076,0.0015,0.0007,-0.0108,-0.0158,-0.0227,-0.0336,-0.0426,-0.0508,-0.0576,-0.0616,-0.0648,-0.0607,-0.0674,-0.0579,-0.0569,-0.0558,-0.0548,-0.0486,-0.0471,-0.0657,-0.0657,-0.0657,0,0.0236,0.0223,0.016,0.0168,0.0149,0.005,0.0056,-0.0003,-0.0134,-0.017,-0.0216,-0.0405,-0.0486,-0.0554,-0.0582,-0.064,-0.0605,-0.0567,-0.0562,-0.0552,-0.0542,-0.0481,-0.0465,-0.0655,-0.0655,-0.0655,-0.0655,0,0.0278,0.0277,0.0285,0.0265,0.024,0.0234,0.0163,0.0124,0.0044,-0.0037,-0.0134,-0.0277,-0.0372,-0.0444,-0.0518,-0.0523,-0.0509,-0.0575,-0.054,-0.0528,-0.0467,-0.045,-0.0652,-0.0653,-0.0653,-0.0654,0,0,0.0314,0.0312,0.032,0.0331,0.0297,0.0277,0.0272,0.0216,0.0207,0.0083,0.0054,-0.0121,-0.0206,-0.0257,-0.0388,-0.0395,-0.0341,-0.0437,-0.0438,-0.0337,-0.0256,-0.0257,-0.024,-0.0399,-0.0396,-0.0394,-0.0236,0,0.0365,0.0408,0.0388,0.0425,0.0442,0.0391,0.0388,0.0337,0.0271,0.0227,0.009,0.0012,-0.013,-0.0185,-0.0216,-0.0327,-0.0295,-0.0372,-0.0313,-0.0308,-0.0281,-0.0221,-0.0234,-0.0094,-0.022,-0.0217,-0.0215,0,0.0421,0.0439,0.0492,0.0506,0.0511,0.0523,0.0518,0.0502,0.0443,0.0396,0.032,0.0213,0.0141,0.003,-0.0042,-0.0078,-0.0125,-0.0192,-0.0189,-0.0177,-0.0279,-0.0133,-0.006,-0.0151,-0.019,-0.0192,-0.0194,0,0.048,0.0513,0.0557,0.0567,0.0571,0.0588,0.0586,0.0549,0.0554,0.0518,0.0534,0.0416,0.0388,0.0297,0.0144,0.0073,0.0113,-0.0014,-0.0035,-0.0035,-0.002,-0.0023,0.0012,0.0018,0.0018,0.0017,0.0017,0,0.0542,0.0579,0.0594,0.0622,0.0678,0.0658,0.0711,0.0694,0.07,0.0744,0.0631,0.0661,0.0462,0.0426,0.0272,0.0198,0.0226,0.0046,0.0018,-0.0009,-0.0013,-0.0074,-0.0161,0.0023,0.0022,0.0021,0.002,0,0.0601,0.0614,0.0667,0.0694,0.0711,0.0753,0.0807,0.0844,0.0852,0.0927,0.0937,0.0891,0.0851,0.067,0.0548,0.0393,0.024,0.0261,0.0271,0.024,0.0085,0.0,0.0069,0.0032,0.0272,0.0273,0.0274,0,0.0635,0.0671,0.0729,0.0772,0.0791,0.0852,0.0901,0.0918,0.0976,0.1069,0.1125,0.113,0.1133,0.0974,0.0705,0.0515,0.0356,0.0386,0.0221,0.0144,0.0028,-0.0029,-0.0071,0.0266,0.0267,0.0267,0.0268,0,0.0695,0.0718,0.0761,0.0852,0.0916,0.0993,0.1072,0.1148,0.1202,0.1295,0.1423,0.1449,0.1302,0.11,0.0836,0.066,0.0311,0.0393,0.0302,0.0052,0.0009,-0.0064,0.0125,0.0273,0.0273,0.0272,0.0272,0.0272,0.074,0.0784,0.0846,0.0931,0.1013,0.1128,0.121,0.1319,0.1458,0.1608,0.1633,0.1699,0.1409,0.103,0.0813,0.0411,0.0379,0.0248,0.0169,0.0135,0.0048,0.0285,0.0382,0.0382,0.0382,0.0382,0.0382,0,0.0787,0.0838,0.092,0.1026,0.1126,0.1159,0.1316,0.1417,0.1606,0.1744,0.1852,0.1743,0.1401,0.1017,0.0472,0.0218,0.0102,0.0083,-0.0015,-0.0039,0.0176,0.0119,0.0177,0.0177,0.0177,0.0177,0.0178,0.0178,0.0816,0.0893,0.0931,0.1098,0.1181,0.1321,0.1419,0.1588,0.1716,0.1885,0.1918,0.1919,0.1628,0.072,0.0143,0.0,-0.017,-0.02,-0.0262,-0.016,-0.0152,-0.0144,-0.0216,-0.0229,-0.0229,-0.0449,-0.0452,-0.0454]}],[{"header":{"parameterUnit":"m.s-1","parameterCategory":2,"la1":30.2991,"la2":30.254,"lo1":-89.0895,"lo2":-89.0444,"dy":0.0017,"dx":0.0017,"nx":28,"ny":28,"refTime":"2025-03-18T09:00:00:Z","depth":"2","parameterNumber":2,"parameterNumberName":"U-component_of_CURRENTS"},"data":[0,0,0,0,0,0,0,0,0,0,0,0,0,0,0,0,0,0,0,0,0,0,0,0,0,0,0,0,0,0,0,0,0,0,0,0,0,0,0,0,0,0,0,0,0,0,0,0,0,0,0,0,0,0,0,0,0,0,0.219,0.2189,0,0.2164,0.2164,0.2165,0.2241,0.2242,0.2243,0.2244,0.229,0.229,0.2291,0,0,0,0,0,0,0,0,0,0,0,0,0,0.2322,0.232,0.2191,0.2189,0.2187,0.2163,0.2165,0.2166,0.2241,0.2242,0.2243,0.2244,0.229,0.229,0.2291,0,0,0,0,0,0,0,0,0,0,0,0,0,0.2292,0.232,0.2191,0.2211,0.2211,0.2163,0.2165,0.2166,0.2241,0.2242,0.2243,0.2245,0.229,0.229,0.2291,0.2266,0,0,0.2292,0.2293,0,0,0,0,0,0,0,0,0.2293,0.2289,0.2209,0.2209,0.2209,0.2194,0.2227,0.2198,0.224,0.2246,0.2244,0.2245,0.2253,0.2257,0.227,0.2268,0.227,0.2292,0.2293,0.2293,0.2293,0,0,0,0,0,0,0,0.2295,0.229,0.2196,0.2207,0.2207,0.2224,0.2223,0.2223,0.2255,0.2245,0.2247,0.2219,0.2256,0.2269,0.2271,0.2271,0.2292,0.2293,0.2293,0.2293,0.2329,0.2329,0,0,0,0,0,0,0.2265,0.2292,0.2196,0.2193,0.2238,0.222,0.2219,0.221,0.2254,0.2257,0.2218,0.2222,0.2267,0.2271,0.2273,0.2366,0.2293,0.2294,0.2294,0.2328,0.2329,0.2329,0,0,0,0,0,0,0.2268,0.2257,0.2197,0.2229,0.222,0.2214,0.2204,0.2208,0.2253,0.2229,0.2237,0.226,0.2269,0.2272,0.2304,0.2363,0.2294,0.2294,0.2327,0.2328,0.2329,0.2474,0,0,0,0,0,0,0.2273,0.226,0.2242,0.2227,0.2217,0.2198,0.2201,0.2206,0.2224,0.2232,0.2267,0.2271,0.227,0.2304,0.2305,0.2363,0.2295,0.2327,0.2328,0.2329,0.2468,0.2479,0.2489,0,0,0,0,0,0.2278,0.2269,0.2243,0.2229,0.2194,0.2197,0.2198,0.2207,0.2225,0.2255,0.2275,0.2272,0.2312,0.2305,0.2306,0.2366,0.2326,0.2327,0.2329,0.2463,0.2477,0.2489,0,0,0,0,0,0,0.2333,0.2273,0.2245,0.2221,0.221,0.2205,0.2234,0.2224,0.2264,0.227,0.2282,0.2287,0.2333,0.2314,0.2307,0.2371,0.2317,0.2318,0.2419,0.2431,0.2442,0.2464,0.2295,0,0,0,0,0,0.2321,0.2305,0.2255,0.2244,0.2253,0.2246,0.2247,0.223,0.2248,0.227,0.2303,0.2317,0.2331,0.2356,0.2355,0.2396,0.2394,0.2429,0.2439,0.2449,0.2463,0.2539,0.256,0.2334,0.2334,0.2334,0,0,0.2327,0.2302,0.2284,0.2253,0.2271,0.2295,0.2262,0.2265,0.2296,0.2263,0.2366,0.2351,0.2343,0.2394,0.2413,0.2397,0.2502,0.2451,0.246,0.2469,0.2543,0.2566,0.2586,0.2335,0.2335,0.2335,0,0,0.2364,0.234,0.2343,0.2346,0.2324,0.2329,0.2337,0.234,0.2371,0.241,0.24,0.2416,0.2468,0.2471,0.2477,0.2535,0.2544,0.2544,0.2641,0.2715,0.2736,0.2754,0.275,0.2767,0.2565,0.2566,0.2566,0,0.2371,0.2367,0.2349,0.2375,0.2382,0.2364,0.2387,0.2422,0.2431,0.2429,0.2462,0.2512,0.2505,0.2554,0.2589,0.2565,0.2596,0.2605,0.2736,0.2754,0.277,0.2762,0.2779,0.2573,0.2572,0.2571,0.2571,0,0.2402,0.2413,0.2448,0.2475,0.2488,0.2507,0.2521,0.2558,0.2589,0.257,0.2623,0.2643,0.2665,0.2677,0.2669,0.2769,0.2746,0.2736,0.2719,0.2803,0.2786,0.2802,0.2583,0.258,0.2578,0.2577,0,0,0.2391,0.2444,0.2461,0.2465,0.2525,0.2519,0.2622,0.2635,0.2669,0.2713,0.2771,0.2816,0.2799,0.2805,0.2805,0.2891,0.3018,0.2896,0.2896,0.2917,0.3166,0.2979,0.2976,0.3076,0.308,0.3084,0.3098,0,0.2427,0.2464,0.2498,0.2554,0.2576,0.2611,0.2706,0.2702,0.2748,0.2808,0.2815,0.2863,0.2862,0.2894,0.2983,0.2988,0.3073,0.3013,0.3058,0.3057,0.2905,0.2992,0.2773,0.2756,0.3113,0.3115,0.3117,0,0.2441,0.246,0.2508,0.2553,0.2573,0.2623,0.2705,0.277,0.2837,0.2872,0.2929,0.2933,0.3014,0.3041,0.3151,0.3133,0.3176,0.3202,0.3203,0.2993,0.29,0.2732,0.277,0.3142,0.314,0.3138,0.3136,0,0.2392,0.2462,0.2488,0.2507,0.258,0.2621,0.2685,0.2765,0.2801,0.2919,0.2943,0.3035,0.3089,0.319,0.3203,0.3221,0.3325,0.3327,0.3195,0.3179,0.2975,0.2933,0.3459,0.3459,0.3459,0.3459,0.3458,0,0.2394,0.2405,0.2464,0.2468,0.2509,0.2582,0.2644,0.2734,0.2838,0.2865,0.297,0.3015,0.3157,0.3195,0.3239,0.3223,0.3341,0.3223,0.3193,0.3007,0.297,0.3289,0.3269,0.3459,0.3459,0.3459,0.3459,0,0.2334,0.238,0.2391,0.246,0.2485,0.2515,0.2606,0.265,0.2775,0.2848,0.2887,0.3005,0.3066,0.3128,0.3252,0.3221,0.3243,0.3219,0.2941,0.2877,0.3043,0.303,0.3089,0.3083,0.3078,0.3074,0.307,0,0.2298,0.2315,0.2359,0.237,0.2409,0.2457,0.2509,0.2627,0.2681,0.2808,0.2838,0.2918,0.294,0.2979,0.2974,0.2979,0.3112,0.2767,0.2755,0.3052,0.3017,0.3012,0.3006,0.2533,0.2526,0.2519,0.2514,0,0.2246,0.2279,0.228,0.2307,0.2347,0.2363,0.2446,0.2454,0.2605,0.2647,0.2695,0.2712,0.2757,0.2645,0.2643,0.2626,0.274,0.2634,0.3066,0.2638,0.2523,0.2489,0.2504,0.2459,0.2464,0.2468,0.2471,0.2473,0.2204,0.2196,0.2217,0.2232,0.226,0.2266,0.224,0.2312,0.2336,0.2381,0.2484,0.2444,0.2474,0.2333,0.2245,0.2184,0.2395,0.2321,0.2344,0.2373,0.2283,0.2164,0.2011,0.2014,0.2017,0.2019,0.2021,0,0.2153,0.2144,0.2143,0.2135,0.2107,0.2167,0.2185,0.2129,0.2093,0.2176,0.218,0.1988,0.1898,0.1922,0.1745,0.1722,0.1756,0.1651,0.1702,0.1758,0.1807,0.1693,0.1263,0.126,0.1258,0.1256,0,0,0.2111,0.2071,0.2058,0.1978,0.1973,0.1904,0.1874,0.1814,0.1818,0.1745,0.1715,0.1841,0.1883,0.1567,0.1509,0.1357,0.1555,0.1299,0.1911,0.2029,0.2076,0.2195,0.2079,0,0,0,0,0]},{"header":{"parameterUnit":"m.s-1","parameterCategory":2,"la1":30.2991,"la2":30.254,"lo1":-89.0895,"lo2":-89.0444,"dy":0.0017,"dx":0.0017,"nx":28,"ny":28,"refTime":"2025-03-18T09:00:00:Z","depth":"2","parameterNumber":3,"parameterNumberName":"V-component_of_CURRENTS"},"data":[0,0,0,0,0,0,0,0,0,0,0,0,0,0,0,0,0,0,0,0,0,0,0,0,0,0,0,0,0,0,0,0,0,0,0,0,0,0,0,0,0,0,0,0,0,0,0,0,0,0,0,0,0,0,0,0,0,0,0.0379,0.038,0,0.0387,0.0387,0.0386,0.0341,0.0341,0.0341,0.034,0.0267,0.0266,0.0264,0,0,0,0,0,0,0,0,0,0,0,0,0,0.0308,0.0309,0.0379,0.038,0.0381,0.0387,0.0387,0.0386,0.0341,0.0341,0.034,0.034,0.0268,0.0266,0.0264,0,0,0,0,0,0,0,0,0,0,0,0,0,0.0321,0.0309,0.0379,0.0366,0.0366,0.0387,0.0386,0.0386,0.0342,0.0341,0.034,0.034,0.0268,0.0266,0.0264,0.0263,0,0,0.0257,0.0256,0,0,0,0,0,0,0,0,0.032,0.0323,0.0367,0.0367,0.0367,0.0371,0.0335,0.0344,0.0342,0.0341,0.034,0.0339,0.0301,0.0296,0.0287,0.026,0.0257,0.0257,0.0255,0.0254,0.0254,0,0,0,0,0,0,0,0.032,0.0322,0.0373,0.0369,0.0368,0.0355,0.0355,0.0336,0.0316,0.0341,0.034,0.0356,0.0299,0.0289,0.0285,0.0256,0.0257,0.0255,0.0253,0.0252,0.0251,0.0252,0,0,0,0,0,0,0.0339,0.0322,0.0373,0.0374,0.0352,0.0358,0.0357,0.0363,0.0318,0.0314,0.0356,0.0354,0.0294,0.0288,0.0282,0.0301,0.0254,0.0252,0.0251,0.025,0.0251,0.0253,0,0,0,0,0,0,0.0337,0.0343,0.0373,0.0356,0.036,0.0361,0.0366,0.0363,0.0361,0.0332,0.0324,0.0359,0.0293,0.0285,0.0261,0.0297,0.0251,0.0249,0.0248,0.025,0.0252,0.0325,0,0,0,0,0,0,0.0335,0.0342,0.0346,0.0357,0.0362,0.0392,0.0368,0.0364,0.0375,0.0372,0.0332,0.0324,0.0292,0.0264,0.0258,0.0293,0.0247,0.0247,0.0249,0.0252,0.0321,0.0329,0.0336,0,0,0,0,0,0.0332,0.0339,0.0345,0.0352,0.0369,0.0394,0.0394,0.0386,0.0377,0.0379,0.0344,0.0325,0.0277,0.0262,0.0255,0.0291,0.0245,0.0248,0.0251,0.0317,0.0328,0.0336,0,0,0,0,0,0,0.031,0.0336,0.0343,0.0358,0.0382,0.039,0.0389,0.0396,0.0372,0.0365,0.0326,0.0315,0.0315,0.029,0.0276,0.03,0.0266,0.0267,0.0318,0.0328,0.0335,0.0347,0.0245,0,0,0,0,0,0.0312,0.0322,0.0353,0.0367,0.0375,0.0386,0.0394,0.0403,0.0393,0.0383,0.0353,0.033,0.0323,0.0313,0.0295,0.0297,0.0255,0.0322,0.033,0.0336,0.0342,0.0272,0.0273,0.0263,0.0263,0.0263,0,0,0.0315,0.0328,0.0337,0.0364,0.037,0.0398,0.0385,0.041,0.0438,0.0379,0.0375,0.0352,0.0329,0.0333,0.0333,0.0315,0.0325,0.034,0.0346,0.0348,0.0275,0.0275,0.0276,0.0265,0.0264,0.0264,0,0,0.0331,0.0328,0.0348,0.0366,0.04,0.041,0.0424,0.044,0.0443,0.0453,0.0423,0.0415,0.0394,0.0385,0.0381,0.0422,0.0367,0.0428,0.0474,0.0405,0.0405,0.0404,0.038,0.0376,0.0431,0.0432,0.0432,0,0.0333,0.0365,0.0359,0.0385,0.0408,0.0419,0.0457,0.0468,0.0476,0.0485,0.0463,0.0442,0.0425,0.0438,0.0458,0.0442,0.0396,0.0439,0.0413,0.0411,0.0408,0.0384,0.0379,0.0435,0.0435,0.0435,0.0434,0,0.0378,0.0398,0.0407,0.0442,0.0459,0.0494,0.052,0.0535,0.0542,0.0556,0.0565,0.0526,0.0513,0.0522,0.0505,0.0501,0.0474,0.0428,0.0385,0.0413,0.0387,0.038,0.0441,0.044,0.0438,0.0437,0,0,0.0393,0.0434,0.0437,0.0465,0.0497,0.0522,0.0559,0.0605,0.0636,0.0629,0.0649,0.0648,0.062,0.0614,0.0585,0.0541,0.0506,0.0484,0.0479,0.0456,0.0373,0.0363,0.0354,0.0434,0.0433,0.0432,0.0371,0,0.0435,0.0497,0.0503,0.0561,0.0595,0.0606,0.0639,0.0676,0.0693,0.0706,0.0687,0.0691,0.0658,0.0652,0.0602,0.0532,0.0486,0.0529,0.0354,0.0351,0.0331,0.0345,0.0359,0.0305,0.0364,0.0363,0.0362,0,0.0481,0.0517,0.0584,0.063,0.0643,0.0673,0.0723,0.0761,0.0785,0.0792,0.0781,0.0756,0.0731,0.0673,0.0558,0.0577,0.0486,0.042,0.0414,0.0371,0.0326,0.0281,0.029,0.035,0.0351,0.0352,0.0352,0,0.0508,0.0569,0.0626,0.0645,0.0699,0.0723,0.075,0.0787,0.0832,0.084,0.0861,0.0804,0.0787,0.0656,0.0551,0.0537,0.04,0.0357,0.0264,0.0264,0.0228,0.0226,0.0245,0.0245,0.0245,0.0245,0.0245,0,0.0552,0.0593,0.0642,0.0675,0.0741,0.0755,0.0826,0.0845,0.0881,0.0942,0.0899,0.0915,0.0771,0.069,0.056,0.0409,0.04,0.028,0.0239,0.026,0.0262,0.0254,0.0256,0.0243,0.0243,0.0244,0.0244,0,0.0571,0.0609,0.0675,0.0735,0.0758,0.0801,0.0879,0.0934,0.0955,0.1024,0.103,0.0995,0.0896,0.0754,0.0561,0.0442,0.0286,0.0223,0.0288,0.0256,0.0197,0.0204,0.0119,0.0118,0.0117,0.0117,0.0116,0,0.0592,0.063,0.0713,0.0761,0.0788,0.0861,0.0921,0.0967,0.1033,0.1082,0.1116,0.105,0.1017,0.0756,0.0535,0.0313,0.0274,0.017,0.0143,0.0211,0.018,0.0188,0.0196,0.0139,0.0139,0.0139,0.0138,0,0.0625,0.0651,0.0707,0.0803,0.0871,0.0963,0.1046,0.1109,0.1176,0.122,0.1252,0.1221,0.1008,0.0791,0.0501,0.0343,0.021,0.0156,0.0181,0.0173,0.0225,0.0196,0.0204,0.0136,0.0136,0.0136,0.0136,0.0136,0.0646,0.0685,0.0759,0.085,0.0938,0.1047,0.1123,0.1213,0.1305,0.1371,0.134,0.1285,0.1065,0.0687,0.0442,0.0186,0.0195,0.0088,0.0091,0.0093,0.011,0.0158,0.0062,0.0062,0.0062,0.0062,0.0061,0,0.0674,0.0723,0.0805,0.0917,0.1012,0.1056,0.1198,0.1267,0.1368,0.1417,0.1425,0.1191,0.0961,0.0703,0.0333,0.0112,0.0094,0.0029,0.006,0.0064,0.0068,0.0084,0.0028,0.0027,0.0027,0.0026,0,0,0.0691,0.0762,0.0802,0.0955,0.1038,0.1164,0.1244,0.1333,0.1394,0.142,0.1386,0.1332,0.1029,0.0753,0.0459,0.0247,0.0203,0.0196,0.0246,0.0322,0.0328,0.0122,0.0155,0,0,0,0,0]}],[{"header":{"parameterUnit":"m.s-1","parameterCategory":2,"la1":30.2991,"la2":30.254,"lo1":-89.0895,"lo2":-89.0444,"dy":0.0017,"dx":0.0017,"nx":28,"ny":28,"refTime":"2025-03-18T09:00:00:Z","depth":"4","parameterNumber":2,"parameterNumberName":"U-component_of_CURRENTS"},"data":[0,0,0,0,0,0,0,0,0,0,0,0,0,0,0,0,0,0,0,0,0,0,0,0,0,0,0,0,0,0,0,0,0,0,0,0,0,0,0,0,0,0,0,0,0,0,0,0,0,0,0,0,0,0,0,0,0,0,0.1039,0.1039,0,0.104,0.104,0.104,0.1056,0.1056,0.1057,0.1057,0.1096,0.1096,0.1097,0,0,0,0,0,0,0,0,0,0,0,0,0,0.111,0.1108,0.1039,0.1039,0.1039,0.104,0.104,0.104,0.1056,0.1056,0.1057,0.1057,0.1095,0.1096,0.1097,0,0,0,0,0,0,0,0,0,0,0,0,0,0.1092,0.1107,0.1039,0.1047,0.1047,0.104,0.104,0.104,0.1056,0.1056,0.1057,0.1058,0.1095,0.1096,0.1097,0.1092,0,0,0.11,0.1101,0,0,0,0,0,0,0,0,0.1093,0.1089,0.1045,0.1046,0.1047,0.1048,0.1079,0.1059,0.1056,0.1053,0.1057,0.1058,0.1083,0.1085,0.1083,0.1093,0.1095,0.11,0.1101,0.1101,0.1101,0,0,0,0,0,0,0,0.1094,0.1089,0.1039,0.1045,0.1046,0.1071,0.1068,0.1076,0.1065,0.1053,0.1054,0.1054,0.1083,0.1082,0.1085,0.1096,0.11,0.1101,0.1102,0.1102,0.1178,0.1179,0,0,0,0,0,0,0.1089,0.109,0.1039,0.1039,0.1071,0.1069,0.1066,0.1047,0.1064,0.1067,0.1053,0.1055,0.108,0.1083,0.1086,0.1146,0.1101,0.1102,0.1103,0.1177,0.1178,0.118,0,0,0,0,0,0,0.109,0.1084,0.1039,0.1066,0.1062,0.1066,0.1046,0.1047,0.1067,0.1064,0.1068,0.1075,0.1081,0.1085,0.1116,0.1146,0.1103,0.1103,0.1175,0.1177,0.1179,0.1225,0,0,0,0,0,0,0.1092,0.1084,0.109,0.1065,0.106,0.1039,0.1045,0.1047,0.1065,0.1067,0.1083,0.1086,0.1082,0.1115,0.1117,0.1146,0.1104,0.1173,0.1176,0.1179,0.1222,0.1228,0.1234,0,0,0,0,0,0.1094,0.1091,0.109,0.1086,0.1061,0.1039,0.1039,0.1046,0.1066,0.1069,0.1094,0.1087,0.1134,0.1117,0.1119,0.1149,0.1172,0.1175,0.1178,0.1219,0.1227,0.1234,0,0,0,0,0,0,0.1132,0.1092,0.109,0.1078,0.1064,0.1042,0.106,0.1059,0.108,0.1103,0.1101,0.1105,0.1144,0.1141,0.1123,0.118,0.1153,0.1157,0.1184,0.1191,0.1197,0.1216,0.1105,0,0,0,0,0,0.114,0.1127,0.1093,0.109,0.1087,0.108,0.1084,0.1083,0.1088,0.1099,0.1108,0.1132,0.1155,0.117,0.1182,0.1211,0.1227,0.1234,0.124,0.1245,0.1263,0.1326,0.1339,0.1191,0.119,0.119,0,0,0.1155,0.1135,0.1129,0.1099,0.1099,0.1098,0.1085,0.1093,0.1106,0.1101,0.1141,0.1153,0.1168,0.1202,0.1219,0.1206,0.1292,0.125,0.1254,0.1269,0.133,0.1345,0.1358,0.1193,0.1192,0.1192,0,0,0.1176,0.1161,0.116,0.1152,0.1148,0.1135,0.1141,0.1129,0.1142,0.1165,0.1179,0.1217,0.1231,0.1258,0.1272,0.1324,0.1322,0.1322,0.137,0.143,0.1443,0.1455,0.1473,0.1486,0.1326,0.1326,0.1326,0,0.1205,0.1188,0.116,0.1166,0.117,0.1154,0.1164,0.117,0.1173,0.1201,0.1187,0.1255,0.1265,0.1329,0.1346,0.134,0.1357,0.1338,0.144,0.1452,0.1463,0.1478,0.1492,0.1329,0.1329,0.1328,0.1328,0,0.121,0.1221,0.1226,0.122,0.1219,0.1225,0.1218,0.1231,0.1244,0.1261,0.1321,0.1332,0.1382,0.1383,0.138,0.1466,0.1445,0.1438,0.142,0.1481,0.1493,0.1506,0.1333,0.1332,0.1331,0.133,0,0,0.1215,0.1226,0.1235,0.1247,0.125,0.1242,0.1274,0.1294,0.1334,0.1353,0.1412,0.1455,0.148,0.1499,0.1502,0.1544,0.1626,0.1527,0.1529,0.1544,0.1734,0.1599,0.16,0.1639,0.1642,0.1645,0.1703,0,0.1235,0.1251,0.1255,0.1287,0.1288,0.1297,0.1322,0.1351,0.1378,0.1431,0.1476,0.1539,0.1519,0.1552,0.1597,0.1627,0.1668,0.1609,0.1675,0.1677,0.1549,0.1614,0.1655,0.1713,0.1716,0.1718,0.172,0,0.1238,0.1243,0.1273,0.1307,0.1313,0.1339,0.1379,0.1408,0.1486,0.1516,0.1594,0.1628,0.1717,0.1679,0.1776,0.174,0.1752,0.1756,0.1758,0.163,0.1567,0.1646,0.1744,0.1742,0.174,0.1739,0.1737,0,0.1223,0.1262,0.1284,0.1294,0.1325,0.1359,0.139,0.1451,0.1491,0.16,0.1647,0.1742,0.1798,0.1846,0.186,0.1839,0.1935,0.191,0.1794,0.1783,0.1866,0.1853,0.1985,0.1985,0.1985,0.1985,0.1985,0,0.1219,0.1245,0.1288,0.1299,0.1333,0.1371,0.1435,0.1475,0.1564,0.1626,0.1714,0.1761,0.1847,0.1899,0.1904,0.1885,0.1984,0.1819,0.1803,0.1879,0.1867,0.1874,0.186,0.1987,0.1987,0.1986,0.1986,0,0.1195,0.1228,0.1252,0.1303,0.1327,0.1357,0.1448,0.1484,0.1587,0.1668,0.1716,0.1816,0.1884,0.1926,0.1994,0.1926,0.193,0.1895,0.1961,0.1945,0.1725,0.1713,0.1787,0.1783,0.1779,0.1776,0.1774,0,0.1175,0.1186,0.1245,0.1257,0.129,0.1348,0.1377,0.148,0.1523,0.1676,0.1702,0.1816,0.1864,0.185,0.1903,0.1908,0.1876,0.1854,0.1801,0.1734,0.1712,0.1705,0.1698,0.1769,0.1768,0.1767,0.1766,0,0.1127,0.1165,0.1185,0.1209,0.1246,0.1273,0.1342,0.1368,0.1487,0.16,0.1655,0.1692,0.175,0.1779,0.1786,0.1784,0.186,0.1818,0.1824,0.1775,0.1713,0.1693,0.169,0.1754,0.1756,0.1757,0.1758,0,0.1095,0.1095,0.1129,0.1139,0.1182,0.1183,0.1227,0.1277,0.1338,0.1509,0.1523,0.1638,0.1738,0.1715,0.1728,0.1712,0.1684,0.1611,0.1628,0.1642,0.1563,0.1461,0.1429,0,0,0,0,0,0.1046,0.1036,0.1046,0.1048,0.1089,0.111,0.1187,0.1236,0.1363,0.1364,0.1443,0.1493,0.1524,0.1579,0.1533,0.1651,0.168,0.1587,0.1603,0.1689,0.1703,0.1621,0,0,0,0,0,0,0.1013,0.1023,0.1016,0.0974,0.0964,0.099,0.1036,0.1113,0.1124,0.1265,0.1294,0.1395,0.1449,0.1541,0.1505,0.1518,0.1492,0.1658,0.1653,0.1681,0.1694,0.1705,0.1625,0,0,0,0,0]},{"header":{"parameterUnit":"m.s-1","parameterCategory":2,"la1":30.2991,"la2":30.254,"lo1":-89.0895,"lo2":-89.0444,"dy":0.0017,"dx":0.0017,"nx":28,"ny":28,"refTime":"2025-03-18T09:00:00:Z","depth":"4","parameterNumber":3,"parameterNumberName":"V-component_of_CURRENTS"},"data":[0,0,0,0,0,0,0,0,0,0,0,0,0,0,0,0,0,0,0,0,0,0,0,0,0,0,0,0,0,0,0,0,0,0,0,0,0,0,0,0,0,0,0,0,0,0,0,0,0,0,0,0,0,0,0,0,0,0,0.0336,0.0337,0,0.0356,0.0356,0.0355,0.0365,0.0366,0.0366,0.0366,0.0334,0.0333,0.0332,0,0,0,0,0,0,0,0,0,0,0,0,0,0.0272,0.0273,0.0336,0.0337,0.0337,0.0356,0.0356,0.0355,0.0365,0.0366,0.0366,0.0367,0.0334,0.0333,0.0331,0,0,0,0,0,0,0,0,0,0,0,0,0,0.0293,0.0274,0.0336,0.0347,0.0348,0.0356,0.0356,0.0355,0.0365,0.0366,0.0366,0.0367,0.0335,0.0333,0.0331,0.031,0,0,0.0326,0.0325,0,0,0,0,0,0,0,0,0.0292,0.0295,0.0345,0.0346,0.0348,0.0362,0.0321,0.0339,0.0365,0.0355,0.0366,0.0367,0.034,0.0338,0.0336,0.0309,0.0308,0.0326,0.0325,0.0324,0.0323,0,0,0,0,0,0,0,0.0291,0.0294,0.034,0.0345,0.0347,0.0339,0.0343,0.0325,0.0341,0.0356,0.0358,0.0365,0.034,0.0338,0.0336,0.0307,0.0326,0.0324,0.0323,0.0322,0.0276,0.0276,0,0,0,0,0,0,0.0297,0.0293,0.034,0.0341,0.0325,0.034,0.0344,0.0354,0.0342,0.0343,0.0365,0.0366,0.0341,0.0338,0.0334,0.0332,0.0324,0.0322,0.0321,0.0276,0.0276,0.0275,0,0,0,0,0,0,0.0296,0.0301,0.0339,0.032,0.0325,0.0342,0.0352,0.0354,0.0365,0.035,0.0349,0.0376,0.0341,0.0337,0.032,0.033,0.0321,0.032,0.0276,0.0276,0.0276,0.0313,0,0,0,0,0,0,0.0294,0.03,0.0307,0.0321,0.0326,0.0348,0.0352,0.0354,0.037,0.0372,0.0359,0.0356,0.0341,0.0322,0.0318,0.0328,0.0318,0.0276,0.0276,0.0276,0.0312,0.0314,0.0316,0,0,0,0,0,0.0291,0.0299,0.0307,0.0313,0.0336,0.0348,0.035,0.0361,0.037,0.0373,0.0361,0.0357,0.0317,0.032,0.0315,0.0325,0.0277,0.0276,0.0276,0.0311,0.0314,0.0316,0,0,0,0,0,0,0.0277,0.0302,0.031,0.0327,0.034,0.0352,0.0357,0.0368,0.0362,0.0365,0.035,0.0345,0.0335,0.032,0.0324,0.0309,0.0298,0.0296,0.0327,0.0329,0.0331,0.0357,0.0317,0,0,0,0,0,0.0277,0.029,0.031,0.0324,0.0331,0.0346,0.0354,0.0365,0.0366,0.0366,0.0356,0.0342,0.0327,0.0321,0.0302,0.0292,0.027,0.0295,0.0297,0.0299,0.0316,0.0284,0.0285,0.0274,0.0274,0.0274,0,0,0.0277,0.0292,0.03,0.0321,0.0332,0.0346,0.0351,0.0369,0.0384,0.036,0.0366,0.0347,0.0324,0.0313,0.0308,0.0304,0.0285,0.0298,0.03,0.0316,0.0284,0.0285,0.0286,0.0274,0.0274,0.0274,0,0,0.0286,0.0296,0.0311,0.0321,0.0344,0.0351,0.036,0.0377,0.0386,0.0387,0.0374,0.0366,0.034,0.0332,0.0323,0.0324,0.0294,0.0313,0.0348,0.0316,0.0317,0.0318,0.0273,0.0269,0.0316,0.0317,0.0317,0,0.0285,0.0313,0.0316,0.0333,0.0348,0.0356,0.0378,0.0383,0.0393,0.0403,0.0393,0.0373,0.0355,0.0351,0.0352,0.0332,0.0299,0.0343,0.032,0.0321,0.0321,0.0274,0.027,0.0318,0.0318,0.0318,0.0318,0,0.0309,0.033,0.0339,0.0363,0.0371,0.0392,0.0403,0.0414,0.0424,0.0432,0.0435,0.0407,0.0402,0.0389,0.0372,0.0368,0.0338,0.0325,0.0319,0.0324,0.0274,0.0269,0.0321,0.032,0.032,0.0319,0,0,0.0314,0.0352,0.0355,0.038,0.0395,0.041,0.0425,0.0449,0.0474,0.0467,0.0492,0.0467,0.0463,0.0452,0.0429,0.0406,0.0371,0.037,0.0367,0.0333,0.0284,0.0267,0.0259,0.0348,0.0347,0.0347,0.0242,0,0.0338,0.0382,0.0389,0.0428,0.0454,0.046,0.0476,0.0494,0.0501,0.0518,0.0505,0.051,0.0482,0.0483,0.0456,0.0396,0.0362,0.04,0.0278,0.0275,0.0266,0.0255,0.0346,0.0238,0.0237,0.0236,0.0235,0,0.0361,0.0391,0.0439,0.0482,0.0493,0.0511,0.0546,0.0566,0.058,0.0586,0.0587,0.057,0.0551,0.0522,0.0429,0.045,0.0376,0.0323,0.0317,0.0292,0.0249,0.0234,0.0226,0.0226,0.0227,0.0228,0.0228,0,0.0376,0.0425,0.047,0.0484,0.0526,0.055,0.0573,0.0592,0.0622,0.0635,0.0646,0.0615,0.06,0.0517,0.0411,0.0416,0.029,0.0281,0.0192,0.0188,0.0219,0.022,0.021,0.021,0.021,0.021,0.0211,0,0.0399,0.0434,0.0487,0.0512,0.0568,0.0583,0.0639,0.0655,0.0683,0.0715,0.0689,0.0689,0.0597,0.0517,0.0417,0.0285,0.0289,0.0201,0.0166,0.0233,0.0237,0.0214,0.0216,0.0206,0.0207,0.0208,0.0209,0,0.0403,0.0441,0.0497,0.0556,0.058,0.062,0.0687,0.0725,0.0741,0.0778,0.0784,0.074,0.0641,0.0524,0.0377,0.0293,0.017,0.0116,0.0184,0.0154,0.0086,0.0091,0.0021,0.002,0.0019,0.0018,0.0017,0,0.0412,0.0444,0.0526,0.0567,0.0598,0.0664,0.0713,0.0755,0.0791,0.0802,0.0815,0.0741,0.0693,0.0469,0.0347,0.0151,0.0122,0.0047,0.0088,0.0096,0.0069,0.0076,0.0082,0.0015,0.0015,0.0015,0.0014,0,0.0423,0.0455,0.0501,0.0586,0.0649,0.072,0.0786,0.0815,0.0857,0.087,0.0834,0.0737,0.062,0.0467,0.0307,0.0168,0.0098,0.0035,0.0037,0.0075,0.0088,0.0064,0.0071,0.001,0.0011,0.0011,0.0011,0,0.043,0.0459,0.0525,0.0598,0.0681,0.075,0.0789,0.0825,0.0862,0.0869,0.0849,0.0735,0.0673,0.0474,0.0327,0.0192,0.0169,0.0122,0.0119,0.0122,0.0189,0.0222,0.0159,0,0,0,0,0,0.0433,0.0468,0.0532,0.0616,0.0697,0.0746,0.0827,0.0858,0.0893,0.0871,0.0863,0.0755,0.0558,0.0478,0.034,0.0308,0.0142,0.0141,0.0086,-0.0012,-0.0007,0.0054,0,0,0,0,0,0,0.0436,0.0492,0.0524,0.0618,0.0674,0.0765,0.0819,0.0845,0.0834,0.0844,0.0744,0.0705,0.0518,0.063,0.033,0.0292,0.0235,0.0056,0.0053,-0.0014,-0.001,-0.0006,0.0058,0,0,0,0,0]}]]